[[{"header":{"parameterUnit":"m.s-1","parameterCategory":1,"la1":30.2991,"la2":30.254,"lo1":-89.0895,"lo2":-89.0444,"dy":0.0017,"dx":0.0017,"nx":28,"ny":28,"refTime":"2023-07-26T09:00:00:Z","depth":0,"parameterNumber":2,"parameterNumberName":"U-component_of_WINDS"},"data":[0,0,0,0,0,0,0,0,0,0,0,0,0,0,0,0,0,0,0,0,0,0,0,0,0,0,0,0,0,0,0,0,0,0,0,0,0,0,0,0,0,0,0,0,0,0,0,0,0,0,0,0,0,0,0,0,0,0,0.336,0.3362,0,0.3562,0.3564,0.3566,0.3648,0.3647,0.3647,0.3646,0.3857,0.3863,0.3869,0,0,0,0,0,0,0,0,0,0,0,0,0,0.3046,0.3051,0.3359,0.3362,0.3364,0.3561,0.3564,0.3567,0.3648,0.3647,0.3647,0.3646,0.3855,0.3862,0.387,0,0,0,0,0,0,0,0,0,0,0,0,0,0.3208,0.3053,0.3359,0.3428,0.3437,0.3561,0.3564,0.3567,0.3648,0.3647,0.3646,0.3646,0.3853,0.3862,0.3871,0.3942,0,0,0.3899,0.3902,0,0,0,0,0,0,0,0,0.3199,0.322,0.3416,0.3424,0.3433,0.3579,0.3531,0.3693,0.3648,0.3568,0.3646,0.3645,0.3765,0.3782,0.3821,0.3951,0.396,0.3899,0.3905,0.3909,0.3911,0,0,0,0,0,0,0,0.3187,0.3211,0.344,0.3418,0.3429,0.345,0.3472,0.3562,0.3668,0.3575,0.3581,0.3604,0.377,0.3812,0.3827,0.3964,0.3899,0.3907,0.3913,0.3916,0.416,0.4161,0,0,0,0,0,0,0.3164,0.3201,0.3433,0.3446,0.3312,0.3456,0.3481,0.3533,0.3668,0.3687,0.3604,0.3607,0.3797,0.3816,0.3835,0.3925,0.3909,0.3917,0.3922,0.4159,0.416,0.4161,0,0,0,0,0,0,0.3157,0.3184,0.3425,0.3325,0.3357,0.3463,0.352,0.3537,0.3579,0.369,0.3709,0.3628,0.3797,0.3822,0.3914,0.3934,0.3921,0.393,0.4158,0.4159,0.4161,0.4108,0,0,0,0,0,0,0.3148,0.3181,0.3209,0.3325,0.3362,0.35,0.3521,0.3542,0.3594,0.36,0.3717,0.3736,0.3799,0.3899,0.3923,0.3946,0.3937,0.4156,0.4158,0.416,0.4108,0.4107,0.4106,0,0,0,0,0,0.3136,0.3187,0.321,0.3237,0.3399,0.3501,0.3522,0.3592,0.3596,0.3625,0.3695,0.3732,0.3927,0.3908,0.3935,0.3962,0.4156,0.4158,0.416,0.4109,0.4107,0.4106,0,0,0,0,0,0,0.3073,0.3204,0.3231,0.332,0.3398,0.3514,0.3553,0.3589,0.3669,0.3671,0.3756,0.3782,0.3866,0.3923,0.3899,0.4036,0.4044,0.4052,0.3996,0.3996,0.3995,0.398,0.3944,0,0,0,0,0,0.3069,0.3139,0.3251,0.3319,0.3357,0.3448,0.3495,0.3542,0.3627,0.3661,0.3738,0.382,0.39,0.3951,0.4031,0.4116,0.4143,0.4148,0.4147,0.4145,0.4151,0.4199,0.4203,0.4169,0.4169,0.4169,0,0,0.3062,0.3142,0.3182,0.3308,0.3375,0.3446,0.3475,0.3551,0.3605,0.3673,0.3764,0.3823,0.392,0.4008,0.4051,0.4058,0.4166,0.4148,0.4146,0.4153,0.4202,0.4205,0.4208,0.417,0.417,0.417,0,0,0.3087,0.3154,0.3218,0.3283,0.3382,0.3442,0.3456,0.3567,0.3608,0.37,0.3752,0.3818,0.3954,0.402,0.4072,0.4117,0.4154,0.4141,0.4137,0.4183,0.4186,0.4188,0.4204,0.4209,0.4146,0.4146,0.4146,0,0.3066,0.3176,0.3247,0.3319,0.3372,0.3434,0.3499,0.3559,0.368,0.3715,0.3721,0.3891,0.3961,0.4065,0.4076,0.4116,0.4135,0.4129,0.4179,0.4183,0.4187,0.4203,0.4208,0.4144,0.4144,0.4145,0.4145,0,0.3145,0.322,0.326,0.3372,0.343,0.3498,0.358,0.363,0.3671,0.3729,0.3822,0.3907,0.4004,0.4032,0.4074,0.4142,0.4143,0.4163,0.4173,0.4186,0.4203,0.421,0.4141,0.4142,0.4142,0.4143,0,0,0.3138,0.3286,0.33,0.335,0.3463,0.3522,0.3592,0.3685,0.3726,0.3807,0.3868,0.3979,0.3998,0.4056,0.4105,0.4145,0.4175,0.4161,0.4164,0.416,0.4254,0.4239,0.4245,0.4199,0.4201,0.4202,0.4246,0,0.3177,0.3305,0.337,0.3469,0.3539,0.3597,0.3658,0.3734,0.379,0.3857,0.392,0.3998,0.4016,0.4052,0.4094,0.4162,0.4195,0.416,0.4258,0.426,0.4232,0.4253,0.4238,0.4276,0.4253,0.4254,0.4255,0,0.3241,0.3318,0.3424,0.3526,0.3558,0.3611,0.3701,0.3764,0.3851,0.3889,0.3952,0.3999,0.4075,0.4078,0.4184,0.4159,0.4202,0.4241,0.4245,0.4257,0.4259,0.4267,0.4289,0.4295,0.4266,0.4265,0.4264,0,0.3224,0.3355,0.3435,0.3476,0.3598,0.3634,0.3686,0.3771,0.3822,0.39,0.3934,0.4021,0.4068,0.4134,0.4204,0.42,0.4303,0.4312,0.4337,0.4335,0.4357,0.4355,0.4387,0.4384,0.4383,0.4383,0.4383,0,0.3262,0.3324,0.3428,0.3478,0.3549,0.3622,0.3691,0.3748,0.3823,0.3884,0.394,0.3997,0.4085,0.4152,0.4207,0.4286,0.4307,0.434,0.4354,0.4336,0.4331,0.4366,0.4366,0.4385,0.4385,0.4384,0.4384,0,0.3256,0.3328,0.3419,0.3525,0.3553,0.3601,0.3692,0.3742,0.3799,0.3876,0.3898,0.399,0.4072,0.4147,0.4257,0.4294,0.4373,0.4391,0.4344,0.4351,0.4372,0.4369,0.4428,0.4439,0.4427,0.4427,0.4427,0,0.3276,0.3325,0.3435,0.3479,0.353,0.3601,0.3652,0.3726,0.3777,0.3878,0.3915,0.4001,0.4073,0.4201,0.4278,0.4362,0.4382,0.4397,0.4396,0.4374,0.4382,0.4379,0.4384,0.4396,0.4396,0.4396,0.4396,0,0.3303,0.3335,0.3407,0.349,0.355,0.3619,0.3691,0.3724,0.3811,0.3866,0.3949,0.4005,0.4116,0.42,0.4292,0.4346,0.4386,0.4395,0.4405,0.4387,0.4358,0.4374,0.4341,0.4394,0.4394,0.4394,0.4394,0.4394,0.3311,0.3356,0.344,0.3518,0.3578,0.3643,0.3695,0.3757,0.3828,0.3923,0.3962,0.4046,0.4129,0.4256,0.431,0.4377,0.4386,0.4401,0.4405,0.4407,0.4403,0.4345,0.4394,0.4395,0.4395,0.4395,0.4395,0,0.334,0.3396,0.3466,0.3564,0.3624,0.3653,0.3733,0.3782,0.3855,0.3929,0.3998,0.4093,0.4174,0.4256,0.4341,0.4379,0.4399,0.4399,0.4398,0.441,0.4391,0.4374,0.4382,0.4382,0.4382,0.4382,0.4382,0.4382,0.3363,0.3441,0.3483,0.3591,0.3648,0.3729,0.3772,0.3832,0.3891,0.3994,0.4061,0.4113,0.419,0.4281,0.4356,0.4378,0.4407,0.4402,0.4429,0.4411,0.4411,0.4412,0.4396,0.4408,0.4408,0.4442,0.4443,0.4443]},{"header":{"parameterUnit":"m.s-1","parameterCategory":1,"la1":30.2991,"la2":30.254,"lo1":-89.0895,"lo2":-89.0444,"dy":0.0017,"dx":0.0017,"nx":28,"ny":28,"refTime":"2023-07-26T09:00:00:Z","depth":0,"parameterNumber":3,"parameterNumberName":"V-component_of_WINDS"},"data":[0,0,0,0,0,0,0,0,0,0,0,0,0,0,0,0,0,0,0,0,0,0,0,0,0,0,0,0,0,0,0,0,0,0,0,0,0,0,0,0,0,0,0,0,0,0,0,0,0,0,0,0,0,0,0,0,0,0,3.037,3.0369,0,3.0299,3.0298,3.0298,3.0314,3.0315,3.0317,3.0318,3.0237,3.0234,3.023,0,0,0,0,0,0,0,0,0,0,0,0,0,3.051,3.0507,3.037,3.0369,3.0368,3.0299,3.0298,3.0297,3.0314,3.0315,3.0317,3.0318,3.0238,3.0234,3.023,0,0,0,0,0,0,0,0,0,0,0,0,0,3.0445,3.0506,3.037,3.0368,3.0367,3.03,3.0298,3.0297,3.0313,3.0315,3.0317,3.0319,3.0239,3.0234,3.0229,3.0157,0,0,3.0214,3.0211,0,0,0,0,0,0,0,0,3.0449,3.044,3.0369,3.0368,3.0367,3.0318,3.0318,3.025,3.0313,3.0333,3.0318,3.032,3.0262,3.0255,3.0237,3.0153,3.0149,3.0213,3.021,3.0208,3.0206,0,0,0,0,0,0,0,3.0453,3.0443,3.0342,3.0368,3.0367,3.0368,3.0361,3.0305,3.0286,3.0332,3.0333,3.0325,3.0261,3.0242,3.0235,3.0148,3.0213,3.0209,3.0206,3.0204,2.9998,2.9996,0,0,0,0,0,0,3.046,3.0446,3.0344,3.034,3.0414,3.0364,3.0356,3.0331,3.0287,3.0283,3.0323,3.0326,3.0249,3.0241,3.0232,3.0142,3.0208,3.0203,3.02,3.0001,2.9998,2.9995,0,0,0,0,0,0,3.0463,3.045,3.0347,3.0393,3.038,3.0359,3.0331,3.0329,3.0309,3.0281,3.0277,3.0307,3.0251,3.0239,3.0175,3.0139,3.0201,3.0196,3.0003,3.0,2.9996,2.9962,0,0,0,0,0,0,3.0467,3.0451,3.0426,3.0393,3.0378,3.0294,3.0329,3.0326,3.0301,3.0304,3.0265,3.026,3.0251,3.0183,3.017,3.0133,3.0192,3.0006,3.0002,2.9997,2.9966,2.9958,2.9951,0,0,0,0,0,3.0472,3.0417,3.0424,3.0412,3.0346,3.0292,3.0283,3.0276,3.0299,3.0271,3.0252,3.0261,3.0146,3.0176,3.0162,3.0123,3.0008,3.0003,2.9998,2.997,2.996,2.9951,0,0,0,0,0,0,3.0444,3.0413,3.042,3.0355,3.0326,3.0295,3.0259,3.0266,3.0228,3.0232,3.0224,3.0214,3.0148,3.013,3.0164,3.0049,3.008,3.0072,3.0064,3.0054,3.0046,3.005,3.0188,0,0,0,0,0,3.0431,3.0392,3.0366,3.0311,3.0296,3.028,3.0257,3.0255,3.0223,3.021,3.0187,3.0154,3.011,3.0081,3.004,2.9965,2.9954,2.9931,2.9923,2.9917,2.9908,2.9864,2.9853,2.9978,2.9978,2.9978,0,0,3.0402,3.038,3.0356,3.0305,3.0282,3.0239,3.027,3.0224,3.0191,3.0202,3.0141,3.0122,3.0085,3.0014,2.9982,2.9996,2.9872,2.991,2.9905,2.99,2.9858,2.9846,2.9835,2.9974,2.9975,2.9975,0,0,3.0327,3.0308,3.0259,3.0236,3.0203,3.0192,3.0181,3.0148,3.0137,3.0076,3.0083,3.0043,2.9968,2.994,2.9916,2.9831,2.9836,2.9817,2.9775,2.9732,2.9722,2.9714,2.968,2.9668,2.981,2.981,2.981,0,3.0294,3.0233,3.0232,3.0185,3.016,3.0172,3.012,3.0097,3.005,3.0032,3.005,2.9956,2.9931,2.9853,2.9833,2.9814,2.9797,2.982,2.9725,2.9716,2.9707,2.9675,2.9663,2.9808,2.9808,2.9808,2.9808,0,3.0193,3.015,3.0114,3.0071,3.0043,2.9994,2.9982,2.9953,2.9954,2.9941,2.9876,2.9848,2.9799,2.9781,2.978,2.9702,2.9712,2.9728,2.9758,2.9693,2.9662,2.965,2.9804,2.9805,2.9806,2.9806,0,0,3.0097,3.0055,3.0041,3.0021,2.9985,2.995,2.99,2.9856,2.983,2.9797,2.9753,2.969,2.9704,2.9676,2.9673,2.9636,2.9566,2.9655,2.9654,2.9637,2.9474,2.9461,2.9447,2.9571,2.9568,2.9567,2.9476,0,3.0016,2.9931,2.9928,2.9849,2.9808,2.9818,2.9774,2.9746,2.9732,2.9693,2.9677,2.9631,2.9655,2.9638,2.9602,2.9582,2.9532,2.9589,2.9525,2.9523,2.9532,2.9431,2.9417,2.9333,2.9465,2.9463,2.9461,0,2.9911,2.9877,2.9795,2.9763,2.9746,2.9707,2.9665,2.9628,2.9595,2.9587,2.9557,2.9559,2.9504,2.9539,2.9461,2.95,2.9474,2.946,2.9456,2.9447,2.9486,2.9416,2.9306,2.9293,2.9443,2.9444,2.9446,0,2.9845,2.9779,2.9721,2.9704,2.9667,2.9638,2.9621,2.959,2.9563,2.9526,2.9507,2.9463,2.9438,2.9402,2.939,2.9417,2.9312,2.9347,2.9301,2.9301,2.9276,2.9277,2.9157,2.9264,2.9265,2.9265,2.9265,0,2.9754,2.9702,2.9691,2.9654,2.9596,2.9592,2.9533,2.9517,2.949,2.9448,2.9454,2.9414,2.9403,2.936,2.935,2.9285,2.9275,2.9264,2.9262,2.9262,2.9263,2.9242,2.9246,2.9262,2.9262,2.9263,2.9263,0,2.9669,2.9661,2.9597,2.9568,2.9559,2.9517,2.949,2.9453,2.9441,2.9388,2.9375,2.9355,2.9305,2.9291,2.923,2.9223,2.9146,2.915,2.9158,2.9157,2.9111,2.9114,2.8971,2.8951,2.9074,2.9073,2.9072,0,2.961,2.9571,2.9538,2.9512,2.9494,2.9452,2.9425,2.9419,2.939,2.9349,2.9316,2.9268,2.9228,2.9146,2.9124,2.9077,2.9078,2.9031,2.907,2.9071,2.9073,2.9074,2.9069,2.9022,2.9021,2.902,2.9019,0,2.9505,2.9503,2.9465,2.9425,2.9393,2.9361,2.933,2.9307,2.9297,2.9263,2.9214,2.9183,2.9122,2.9071,2.9024,2.9002,2.9007,2.9008,2.8994,2.8992,2.8997,2.899,2.9134,2.901,2.9011,2.9012,2.9012,2.9012,2.9429,2.9394,2.9365,2.9322,2.9299,2.927,2.9234,2.9218,2.9177,2.9128,2.9127,2.9072,2.9037,2.8974,2.895,2.8905,2.8918,2.8899,2.8894,2.8888,2.8883,2.9007,2.8896,2.8897,2.8897,2.8897,2.8897,0,2.9322,2.9305,2.9265,2.9223,2.9188,2.92,2.9166,2.9135,2.9087,2.9057,2.9018,2.8959,2.8911,2.8885,2.8836,2.8804,2.8805,2.8791,2.8792,2.8786,2.8876,2.8891,2.8791,2.8791,2.8791,2.8791,2.8791,2.8791,2.9262,2.9202,2.9196,2.9124,2.9106,2.9054,2.9033,2.9005,2.898,2.8915,2.8876,2.8861,2.8831,2.8779,2.8734,2.8728,2.8708,2.8692,2.8686,2.8769,2.878,2.879,2.8804,2.8688,2.8688,2.86,2.8599,2.8598]}]]